When you browse on this site, cookies collect data to enhance your experience and personalize the content and advertising you see.
Visit our Privacy Policy to learn more. By continuing to use the site, you agree to this use of cookies and data.
  • In Hungary
  • List of Countries
  • For 7 days
  • Water Temperature
  • Weather Map
  • News
  • Weather Widgets
  • user-avatar
    Login

    Hourly Weather Stolac

    Today, 22 August, Thursday

    Time Temperature Precipitation Wind Pressure Humidity
    00:00 +24°C° 0 mm 3 mps 742 mmHg 61%
    01:00 +22°C° 0 mm 3 mps 742 mmHg 68%
    02:00 +22°C° 0 mm 3 mps 742 mmHg 69%
    03:00 +21°C° 0 mm 3 mps 742 mmHg 70%
    04:00 +21°C° 0 mm 3 mps 741 mmHg 71%
    05:00 +22°C° 0 mm 3 mps 742 mmHg 69%
    06:00 +24°C° 0 mm 2 mps 742 mmHg 66%
    07:00 +26°C° 0 mm 2 mps 743 mmHg 63%
    08:00 +28°C° 0 mm 2 mps 743 mmHg 54%
    09:00 +31°C° 0 mm 2 mps 743 mmHg 45%
    10:00 +33°C° 0 mm 1 mps 743 mmHg 36%
    11:00 +34°C° 0 mm 1 mps 743 mmHg 34%
    12:00 +35°C° 0 mm 1 mps 742 mmHg 31%
    13:00 +37°C° 0 mm 2 mps 742 mmHg 28%
    14:00 +36°C° 0 mm 2 mps 742 mmHg 30%
    15:00 +36°C° 0 mm 2 mps 742 mmHg 32%
    16:00 +35°C° 0 mm 2 mps 741 mmHg 34%
    17:00 +32°C° 0 mm 2 mps 741 mmHg 41%
    18:00 +30°C° 0 mm 2 mps 742 mmHg 47%
    19:00 +28°C° 0 mm 1 mps 742 mmHg 53%
    20:00 +27°C° 0 mm 2 mps 742 mmHg 57%
    21:00 +26°C° 0 mm 2 mps 742 mmHg 60%
    22:00 +25°C° 0 mm 2 mps 742 mmHg 64%
    23:00 +25°C° 0 mm 2 mps 742 mmHg 66%

    Tomorrow, 23 August, Friday

    Time Temperature Precipitation Wind Pressure Humidity
    00:00 +24°C° 0 mm 2 mps 742 mmHg 68%
    01:00 +24°C° 0 mm 2 mps 742 mmHg 70%
    02:00 +23°C° 0 mm 2 mps 742 mmHg 70%
    03:00 +23°C° 0 mm 2 mps 742 mmHg 70%
    04:00 +23°C° 0 mm 2 mps 742 mmHg 70%
    05:00 +24°C° 0 mm 2 mps 742 mmHg 66%
    06:00 +25°C° 0 mm 2 mps 742 mmHg 62%
    07:00 +27°C° 0 mm 2 mps 742 mmHg 58%
    08:00 +29°C° 0 mm 1 mps 742 mmHg 50%
    09:00 +32°C° 0 mm 1 mps 743 mmHg 43%
    10:00 +35°C° 0 mm 1 mps 743 mmHg 35%
    11:00 +35°C° 0 mm 1 mps 743 mmHg 34%
    12:00 +35°C° 0 mm 1 mps 742 mmHg 33%
    13:00 +35°C° 0 mm 1 mps 742 mmHg 31%
    14:00 +34°C° 0 mm 1 mps 742 mmHg 36%
    15:00 +32°C° 0 mm 2 mps 741 mmHg 41%
    16:00 +31°C° 0 mm 2 mps 741 mmHg 46%
    17:00 +30°C° 0 mm 2 mps 741 mmHg 49%
    18:00 +29°C° 0 mm 2 mps 741 mmHg 51%
    19:00 +28°C° 0 mm 2 mps 741 mmHg 54%
    20:00 +27°C° 0 mm 2 mps 741 mmHg 55%
    21:00 +27°C° 0 mm 2 mps 742 mmHg 56%
    22:00 +26°C° 0 mm 2 mps 742 mmHg 58%
    23:00 +25°C° 0 mm 2 mps 741 mmHg 59%

    Day after tomorrow, 24 August, Saturday

    Time Temperature Precipitation Wind Pressure Humidity
    00:00 +25°C° 0 mm 2 mps 741 mmHg 61%
    01:00 +24°C° 0 mm 2 mps 741 mmHg 63%
    02:00 +24°C° 0 mm 2 mps 741 mmHg 62%
    03:00 +24°C° 0 mm 2 mps 741 mmHg 61%
    04:00 +24°C° 0 mm 2 mps 741 mmHg 59%
    05:00 +25°C° 0 mm 2 mps 741 mmHg 57%
    06:00 +26°C° 0 mm 2 mps 741 mmHg 55%
    07:00 +27°C° 0 mm 2 mps 741 mmHg 53%
    08:00 +29°C° 0 mm 1 mps 741 mmHg 48%
    09:00 +31°C° 0 mm 1 mps 741 mmHg 43%
    10:00 +33°C° 0 mm 1 mps 741 mmHg 38%
    11:00 +32°C° 0 mm 1 mps 741 mmHg 39%
    12:00 +32°C° 0 mm 2 mps 741 mmHg 41%
    13:00 +31°C° 0 mm 2 mps 741 mmHg 42%
    14:00 +31°C° 0 mm 2 mps 740 mmHg 42%
    15:00 +31°C° 0 mm 2 mps 740 mmHg 42%
    16:00 +32°C° 0 mm 2 mps 740 mmHg 42%
    17:00 +30°C° 0 mm 2 mps 740 mmHg 49%
    18:00 +28°C° 0 mm 2 mps 740 mmHg 55%
    19:00 +26°C° 0 mm 2 mps 740 mmHg 62%
    20:00 +25°C° 0 mm 2 mps 740 mmHg 64%
    21:00 +24°C° 0 mm 2 mps 740 mmHg 66%
    22:00 +23°C° 0 mm 2 mps 741 mmHg 68%
    23:00 +23°C° 0 mm 2 mps 740 mmHg 66%

    25 August, Sunday

    Time Temperature Precipitation Wind Pressure Humidity
    00:00 +23°C° 0 mm 2 mps 740 mmHg 64%
    01:00 +23°C° 0 mm 2 mps 740 mmHg 62%
    02:00 +23°C° 0 mm 2 mps 740 mmHg 61%
    03:00 +23°C° 0 mm 2 mps 739 mmHg 61%
    04:00 +23°C° 0 mm 2 mps 739 mmHg 60%
    05:00 +24°C° 0.1 mm 2 mps 739 mmHg 58%
    06:00 +25°C° 0.1 mm 1 mps 740 mmHg 56%
    07:00 +27°C° 0.1 mm 1 mps 740 mmHg 54%
    08:00 +29°C° 0 mm 1 mps 740 mmHg 47%
    09:00 +32°C° 0 mm 1 mps 740 mmHg 40%
    10:00 +34°C° 0 mm 1 mps 740 mmHg 33%
    11:00 +34°C° 0 mm 1 mps 740 mmHg 33%
    12:00 +35°C° 0 mm 2 mps 740 mmHg 34%
    13:00 +35°C° 0 mm 3 mps 739 mmHg 34%
    14:00 +34°C° 0.1 mm 3 mps 739 mmHg 36%
    15:00 +34°C° 0.1 mm 2 mps 739 mmHg 38%
    16:00 +32°C° 0.1 mm 2 mps 739 mmHg 41%
    17:00 +29°C° 0.2 mm 2 mps 740 mmHg 52%
    18:00 +26°C° 0.2 mm 2 mps 740 mmHg 64%
    19:00 +23°C° 0.2 mm 2 mps 740 mmHg 75%
    20:00 +23°C° 0 mm 2 mps 740 mmHg 76%
    21:00 +21°C° 0 mm 2 mps 740 mmHg 76%
    22:00 +20°C° 0 mm 2 mps 740 mmHg 76%
    23:00 +20°C° 0 mm 2 mps 740 mmHg 75%

    26 August, Monday

    Time Temperature Precipitation Wind Pressure Humidity
    00:00 +20°C° 0 mm 2 mps 740 mmHg 74%
    01:00 +20°C° 0 mm 2 mps 739 mmHg 73%
    02:00 +20°C° 0 mm 2 mps 739 mmHg 71%
    03:00 +20°C° 0 mm 2 mps 739 mmHg 68%
    04:00 +20°C° 0 mm 2 mps 739 mmHg 66%
    05:00 +23°C° 0 mm 2 mps 739 mmHg 62%
    06:00 +24°C° 0 mm 1 mps 740 mmHg 58%
    07:00 +26°C° 0 mm 1 mps 740 mmHg 54%
    08:00 +28°C° 0 mm 1 mps 740 mmHg 47%
    09:00 +31°C° 0 mm 1 mps 740 mmHg 40%
    10:00 +34°C° 0 mm 1 mps 741 mmHg 33%
    11:00 +34°C° 0 mm 1 mps 740 mmHg 31%
    12:00 +36°C° 0 mm 2 mps 740 mmHg 29%
    13:00 +36°C° 0 mm 3 mps 740 mmHg 27%
    14:00 +35°C° 0 mm 3 mps 740 mmHg 29%
    15:00 +35°C° 0 mm 3 mps 740 mmHg 32%
    16:00 +34°C° 0 mm 3 mps 740 mmHg 35%
    17:00 +30°C° 0 mm 2 mps 740 mmHg 44%
    18:00 +28°C° 0 mm 2 mps 740 mmHg 52%
    19:00 +25°C° 0 mm 1 mps 740 mmHg 61%
    20:00 +25°C° 0 mm 1 mps 740 mmHg 63%
    21:00 +24°C° 0 mm 2 mps 741 mmHg 66%
    22:00 +23°C° 0 mm 2 mps 741 mmHg 68%
    23:00 +21°C° 0 mm 2 mps 741 mmHg 68%

    27 August, Tuesday

    Time Temperature Precipitation Wind Pressure Humidity
    00:00 +21°C° 0 mm 2 mps 740 mmHg 68%
    01:00 +21°C° 0 mm 2 mps 740 mmHg 68%
    02:00 +21°C° 0 mm 2 mps 740 mmHg 67%
    03:00 +21°C° 0 mm 2 mps 740 mmHg 65%
    04:00 +20°C° 0 mm 2 mps 740 mmHg 64%
    05:00 +23°C° 0 mm 1 mps 740 mmHg 60%
    06:00 +24°C° 0 mm 1 mps 740 mmHg 56%
    07:00 +26°C° 0 mm 1 mps 740 mmHg 52%
    08:00 +28°C° 0 mm 1 mps 740 mmHg 46%
    09:00 +31°C° 0 mm 1 mps 741 mmHg 40%
    10:00 +33°C° 0 mm 1 mps 741 mmHg 34%
    11:00 +35°C° 0 mm 2 mps 741 mmHg 33%
    12:00 +35°C° 0 mm 2 mps 740 mmHg 32%
    13:00 +35°C° 0 mm 3 mps 740 mmHg 30%
    14:00 +34°C° 0.1 mm 3 mps 740 mmHg 34%
    15:00 +32°C° 0.1 mm 2 mps 740 mmHg 39%
    16:00 +31°C° 0.1 mm 2 mps 739 mmHg 43%
    17:00 +29°C° 0 mm 2 mps 739 mmHg 50%
    18:00 +27°C° 0 mm 1 mps 739 mmHg 58%
    19:00 +24°C° 0 mm 1 mps 739 mmHg 65%
    20:00 +24°C° 0 mm 1 mps 740 mmHg 66%
    21:00 +24°C° 0 mm 1 mps 740 mmHg 66%
    22:00 +23°C° 0 mm 2 mps 740 mmHg 66%
    23:00 +23°C° 0 mm 1 mps 740 mmHg 66%
    Show more